sat.trackr.live / text

‹ back to catalog

STARLINK-34033

NORAD 64045 · 2025-102Z

PAYLOAD ACTIVE UNKNOWN

§ Identity

Operator
Country
US
Launch date
2025-05-16
Launch site
AFWTR
Launch vehicle
Mass (kg)
RCS (m²)

Purposes: comms

External: N2YO · Heavens-Above · Gunter

§ Orbital elements

Epoch: 2026-05-24T19:14:13.844832Z

Period
96.11 min
Inclination
70.0002°
Eccentricity
0.0002694
Mean motion
14.98349863 rev/d
Perigee alt
570.1 km
Apogee alt
573.9 km
Semi-major
6,950.1 km
B*
2.9055e-4
RAAN
282.5187°
Arg perigee
273.8764°
Mean anomaly
86.2087°
Rev number
5,728

§ Raw data

STARLINK-340331 64045U 25102Z   26144.80154913  .00003377  00000+0  29055-3 0  99902 64045  70.0002 282.5187 0002694 273.8764  86.2087 14.98349863 57289

JSON: /api/v1/satellites/64045 · /tle

For live sub-satellite position, see the globe view (requires WebGL).

§ Visibility from observer

Set your observer location to see the next 7 days of passes ≥ 10°. The values pass through the URL so the page stays shareable.

No JS? Fill the form by hand. The geolocation button needs JavaScript.